sat.trackr.live / text

‹ back to catalog

STARLINK-34565

NORAD 64686 · 2025-139Y

PAYLOAD ACTIVE UNKNOWN

§ Identity

Operator
Country
US
Launch date
2025-06-28
Launch site
AFETR
Launch vehicle
Mass (kg)
RCS (m²)

Purposes: comms

External: N2YO · Heavens-Above · Gunter

§ Orbital elements

Epoch: 2026-09-20T09:15:44.484192Z

Period
93.85 min
Inclination
53.1569°
Eccentricity
0.0001146
Mean motion
15.34396729 rev/d
Perigee alt
461.9 km
Apogee alt
463.5 km
Semi-major
6,840.8 km
B*
7.0208e-4
RAAN
298.3883°
Arg perigee
86.1813°
Mean anomaly
273.9321°
Rev number
7,015

§ Raw data

STARLINK-345651 64686U 25139Y   26263.38593153  .00023416  00000+0  70208-3 0  99912 64686  53.1569 298.3883 0001146  86.1813 273.9321 15.34396729 70150

JSON: /api/v1/satellites/64686 · /tle

For live sub-satellite position, see the globe view (requires WebGL).

§ Visibility from observer

Set your observer location to see the next 7 days of passes ≥ 10°. The values pass through the URL so the page stays shareable.

No JS? Fill the form by hand. The geolocation button needs JavaScript.